JCSAT-17 (45245 NORAD) Tracking and Keplerian Element Data

This shows tracking and keplerian element data for the satellite.

Feedback or suggestion? Click here.




ElementValue
Catalog45245
NameJCSAT-17
Epoch Orbit152
Epoch Day193.77231939
Epoch Year2020
RAAN344.0395
Inclination6.8727
Eccentricity0.0003054
Argument of Perigee143.8103
Mean Anonmoly216.3086
Mean Motion1.00271214
Decay Rate-3.16E-06
L11 45245U 20013A 20193.77231939 -.00000316 00000-0 00000-0 0 9993
L22 45245 6.8727 344.0395 0003054 143.8103 216.3086 1.00271214 1524

Live tracking and technical data element details for JCSAT-17 (NORAD 45245). JCSAT-17 can be tracked NOW for your location showing map with azimuth and elevation plus other details from your city location.

Track the satellite on the map from your city or location and see movement details for azimuth, elevation, latitude, longitude, range, height, and movement on the map or in text.







IsCatalogInMostPopularTable: catalog: 45245, numindb: 35
Update: records affected: 1



GetName: 45245 JCSAT-17

Hit Count: updated at: Mon, 13 Jul 2020 04:11:40 GMT